Regional Weather Roundup
Issued by NWS Upton, NY

Current Version | Previous Version | Graphics & Text | Print | Product List | Glossary Off
Versions: 1 2 3 4 5 6 7 8 9 10 11 12 13 14 15 16 17 18 19 20 21 22 23 24 25 26 27 28 29 30 31 32 33 34 35 36 37 38 39 40 41 42 43 44 45 46 47 48 49 50

000
ASUS41 KOKX 031604
RWROKX

REGIONAL WEATHER ROUNDUP
NATIONAL WEATHER SERVICE NEW YORK NY
1200 PM EDT THU SEP 03 2015

NOTE: "FAIR" INDICATES FEW OR NO CLOUDS BELOW 12,000 FEET WITH NO
SIGNIFICANT WEATHER AND/OR OBSTRUCTIONS TO VISIBILITY.

NYZ071-072-176-178-NJZ106-104-031700-
NEW YORK CITY METRO AREA


CITY           SKY/WX    TMP DP  RH WIND       PRES   REMARKS
CENTRAL PARK   SUNNY     88  64  44 MISG      29.91F
LAGUARDIA APRT MOSUNNY   87  64  46 N7        29.87F
KENNEDY INTL   MOSUNNY   89  64  43 N8        29.88F HX  90
NEWARK/LIBERTY MOSUNNY   89  62  40 N8        29.87F
BRNX BOT. GARD   N/A     84  66  54 N6        29.88F
TETERBORO      SUNNY     87  62  43 NE6       29.86F
$$

NYZ177-179-078>081-031700-
LONG ISLAND NEW YORK

CITY           SKY/WX    TMP DP  RH WIND       PRES   REMARKS
FARMINGDALE    SUNNY     88  65  46 VRB5      29.87F HX  90
ISLIP          MOSUNNY   87  66  49 NW6       29.86S
SHIRLEY        SUNNY     88  66  48 CALM      29.87F HX  90
WESTHAMPTON    MOSUNNY   85  70  60 SE8       29.88F
MONTAUK POINT    N/A     81  71  71 NW7       29.88F
$$

NYZ052-065-067-031700-
HUDSON VALLEY

CITY           SKY/WX    TMP DP  RH WIND       PRES   REMARKS
WHITE PLAINS   SUNNY     86  64  47 N8        29.89F
NEWBURGH       NOT AVBL
MONTGOMERY     SUNNY     86  68  54 CALM      29.90F
POUGHKEEPSIE   SUNNY     84  67  56 NW5       29.89F
ALBANY         MOSUNNY   83  68  60 VRB3      29.90F
$$

NJZ001-105-106-008-010-013-015-019>022-104-031700-
NEW JERSEY

CITY           SKY/WX    TMP DP  RH WIND       PRES   REMARKS
NEWARK/LIBERTY MOSUNNY   89  62  40 N8        29.87F
TETERBORO      SUNNY     87  62  43 NE6       29.86F
CALDWELL       SUNNY     87  59  38 NW7       29.89F
MORRISTOWN     SUNNY     88  66  48 NE7       29.89F HX  90
SOMERVILLE     SUNNY     87  63  44 NE7       29.87F
SUSSEX         SUNNY     84  68  58 E7        29.91F
ANDOVER          N/A     83  66  56 NE3       29.92F
TRENTON        SUNNY     87  64  46 N10       29.88F
MILLVILLE      SUNNY     90  65  43 N9        29.88F HX  92
ATLANTIC CITY  SUNNY     89  67  47 N13       29.87F HX  92
WRIGHTSTOWN    NOT AVBL
TOMS RIVER     SUNNY     84  66  54 N12G17    29.88F
BELMAR         SUNNY     84  64  51 NW10      29.89S
$$

PAZ047>061-062-071-031700-
EASTERN PENNSYLVANIA

CITY           SKY/WX    TMP DP  RH WIND       PRES   REMARKS
PHILADELPHIA   MOSUNNY   89  65  44 NW13      29.89F HX  91
ALLENTOWN      SUNNY     88  68  51 NE10G16   29.91F HX  91
SCRANTON       SUNNY     82  68  62 CALM      29.95F
$$

CTZ002-004>006-009-010-012-RIZ004-006-007-MAZ004-011-015-031700-
SOUTHERN NEW ENGLAND
 IN CT

CITY           SKY/WX    TMP DP  RH WIND       PRES   REMARKS
BRADLEY INTL   MOSUNNY   85  69  58 N7        29.87F
HARTFORD       SUNNY     84  68  58 NE3       29.86F
DANBURY        SUNNY     84  65  52 NE8       29.91S
WTRBRY/OXFORD  MOSUNNY   81  64  57 E3        29.93S HAZE
BRIDGEPORT     SUNNY     82  69  64 S8        29.87F
MERIDEN        SUNNY     88  66  48 NE3       29.87F HX  90
NEW HAVEN      SUNNY     81  69  67 VRB7      29.87S
CHESTER        NOT AVBL
GROTON         SUNNY     78  69  73 SW9       29.86S
WILLIMANTIC    SUNNY     85  67  54 CALM      29.86F

 IN RI

CITY           SKY/WX    TMP DP  RH WIND       PRES   REMARKS
PROVIDENCE     MOSUNNY   87  66  49 VRB5      29.86F
BLOCK ISLAND   SUNNY     81  70  69 W8        29.88S
WESTERLY       SUNNY     83  69  62 SW6       29.86F

 IN MA

CITY           SKY/WX    TMP DP  RH WIND       PRES   REMARKS
BOSTON         MOSUNNY   81  66  60 E8        29.86F
WORCESTER      SUNNY     82  63  52 NE5       29.91F
WESTFIELD      SUNNY     83  67  58 NE7       29.88F
PROVINCETOWN     N/A     75  64  69 CALM      29.86F
NANTUCKET      NOT AVBL
$$

ANZ330-335-338-340-345-350-353-355-031700-
COASTAL MARINE OBSERVATIONS


STATION/POSITION TIME  SKY/WX   TEMP    WIND        PRES    VSBY  WAVE
                                AIR SEA DIR/SP/G                  HT/PER
                 (UTC)          (F)     (DEG/KT/KT) (MB)    (MI)  (FT/S)
NY HARB ENTRANCE 1450            78 77   20/  8/  8 1011.3          1/14
4S FIRE IS       NOT AVBL
20S FIRE ISLAND  1450            74 76   10/  8/  8 1011.4          2/ 6
GREAT SOUTH BAY  1500            76 80  170/  4/  4   N/A
23SW MTP         1550            74 74  310/  4/  6 1011.2          2/ 7
HUDSON CANYON    NOT AVBL
KINGS POINT      1500                    20/  5/  6 1011.3
EXECUTION ROCKS  1500            78     130/  2/  2   N/A
CENTRAL LI SOUND NOT AVBL
EASTERN LI SOUND 1500            73 72  230/  6/  8   N/A
ROBBINS REEF     1500                    20/  6/  7 1010.9
$$


>>>>>>>>>>>>>>>>>>>>>>>>>>>> KEY <<<<<<<<<<<<<<<<<<<<<<<<<<<
>                                                          <
>     SKY/WX - SKY CONDITION/PRESENT WEATHER               <
>     TMP    - TEMPERATURE IN FAHRENHEIT                   <
>     DP     - DEWPOINT IN FAHRENHEIT                      <
>     RH     - RELATIVE HUMIDITY IN PERCENT                <
>     WIND   - DIRECTION AND SPEED IN MPH                  <
>     PRES   - MEAN SEA LEVEL PRESSURE IN INCHES OF HG     <
>     WCI    - WIND CHILL INDEX                            <
>     VSB    - VISIBILITY IN MILES                         <
>     HX     - HEAT INDEX                                  <
>     TC     - TEMPERATURE IN CELSIUS                      <
>     VRB    - VARIABLE WIND DIRECTION                     <
>                                                          <
>>>>>>>>>>>>>>>>>>>>>>>>>>>> KEY <<<<<<<<<<<<<<<<<<<<<<<<<<<





USA.gov is the U.S. government's official web portal to all federal, state and local government web resources and services.